FW2834 Weather Reports


Display with metric or nautical units.
time (UTC)temp
F
wind
direction
speed
MPH
gust
MPH
rain 1hr
in
rain 24hr
in
rain mn
in
humidity
%
barometer
mb
20260505023554 66 141 0.0 2.0 0.00 0.00 0.00 55 1004.9
20260505023058 66 140 0.0 2.0 0.00 0.00 0.00 54 1004.8
20260505022554 66 140 0.0 2.0 0.00 0.00 0.00 54 1004.8
20260505022053 66 140 0.0 2.0 0.00 0.00 0.00 54 1004.8
20260505021557 67 140 0.0 2.0 0.00 0.00 0.00 53 1004.7
20260505021053 67 140 0.0 2.0 0.00 0.00 0.00 53 1004.7
20260505020552 67 145 0.0 2.0 0.00 0.00 0.00 53 1004.5
20260505020056 67 145 0.0 3.0 0.00 0.00 0.00 53 1004.5
20260505015552 67 145 0.0 3.0 0.00 0.00 0.00 53 1004.5
20260505015055 67 148 0.0 3.0 0.00 0.00 0.00 52 1004.5
20260505014552 67 148 0.0 3.0 0.00 0.00 0.00 52 1004.5
20260505014051 67 148 1.0 3.0 0.00 0.00 0.00 52 1004.4
20260505013552 67 151 0.0 3.0 0.00 0.00 0.00 51 1004.4
20260505013051 68 151 1.0 3.0 0.00 0.00 0.00 51 1004.2
20260505012552 68 151 0.0 2.0 0.00 0.00 0.00 51 1004.2
20260505012055 68 151 0.0 2.0 0.00 0.00 0.00 51 1004.2
20260505011554 68 151 0.0 2.0 0.00 0.00 0.00 50 1004.2
20260505011055 69 151 0.0 3.0 0.00 0.00 0.00 49 1004.3
20260505010550 69 153 0.0 2.0 0.00 0.00 0.00 49 1004.2
20260505010053 69 153 0.0 2.0 0.00 0.00 0.00 48 1004.2
20260505005550 70 153 0.0 2.0 0.00 0.00 0.00 48 1004.1
20260505005050 70 153 0.0 2.0 0.00 0.00 0.00 47 1004.0
20260505004550 70 153 0.0 2.0 0.00 0.00 0.00 47 1004.0
20260505004049 71 153 0.0 2.0 0.00 0.00 0.00 46 1004.1
20260505003549 71 153 0.0 3.0 0.00 0.00 0.00 46 1004.1
20260505003050 71 153 0.0 3.0 0.00 0.00 0.00 45 1004.0
20260505002550 71 315 0.0 3.0 0.00 0.00 0.00 45 1004.1
20260505002050 72 90 0.0 0.0 0.00 0.00 0.00 44 1004.1
20260505001549 72 90 0.0 0.0 0.00 0.00 0.00 44 1004.2
20260505001047 72 90 0.0 0.0 0.00 0.00 0.00 44 1004.3
20260505000546 73 90 0.0 2.0 0.00 0.00 0.00 43 1004.3
20260505000049 73 90 0.0 2.0 0.00 0.00 0.00 42 1004.4
20260504235546 73 90 0.0 2.0 0.00 0.00 0.00 42 1004.4
20260504235045 73 94 0.0 2.0 0.00 0.00 0.00 42 1004.5
20260504234545 73 88 0.0 3.0 0.00 0.00 0.00 41 1004.5
20260504234044 74 186 0.0 3.0 0.00 0.00 0.00 41 1004.6
20260504233545 74 286 0.0 3.0 0.00 0.00 0.00 41 1004.7
20260504233045 74 286 0.0 3.0 0.00 0.00 0.00 41 1004.7
20260504232543 74 272 0.0 6.0 0.00 0.00 0.00 41 1004.6
20260504232043 74 267 1.0 7.0 0.00 0.00 0.00 41 1004.7
20260504231543 74 332 1.0 7.0 0.00 0.00 0.00 40 1004.7
20260504231043 74 46 1.0 6.0 0.00 0.00 0.00 41 1004.6
20260504230546 74 270 1.0 6.0 0.00 0.00 0.00 40 1004.8
20260504230043 74 76 1.0 4.0 0.00 0.00 0.00 41 1004.7
20260504225545 74 186 0.0 4.0 0.00 0.00 0.00 41 1004.7
20260504225045 74 288 0.0 3.0 0.00 0.00 0.00 41 1004.8
20260504224543 74 32 1.0 4.0 0.00 0.00 0.00 41 1004.7
20260504224045 74 69 1.0 4.0 0.00 0.00 0.00 41 1004.9
20260504223542 74 88 1.0 4.0 0.00 0.00 0.00 42 1004.9
20260504223141 75 309 1.0 4.0 0.00 0.00 0.00 43 1004.9
20260504222541 75 112 0.0 3.0 0.00 0.00 0.00 46 1004.8
20260504222041 75 111 0.0 2.0 0.00 0.00 0.00 45 1004.8
20260504221543 75 111 0.0 4.0 0.00 0.00 0.00 46 1004.7
20260504221039 75 130 1.0 4.0 0.00 0.00 0.00 45 1004.8
20260504220538 75 133 0.0 2.0 0.00 0.00 0.00 43 1005.0
20260504220041 75 134 0.0 6.0 0.00 0.00 0.00 45 1005.2
20260504215537 75 273 0.0 1.0 0.00 0.00 0.00 45 1005.3
20260504215036 75 273 0.0 1.0 0.00 0.00 0.00 44 1005.4
20260504214546 75 273 0.0 2.0 0.00 0.00 0.00 44 1005.5
20260504214035 76 273 0.0 2.0 0.00 0.00 0.00 43 1005.5
20260504213535 76 270 0.0 4.0 0.00 0.00 0.00 42 1005.5
20260504213042 76 269 0.0 4.0 0.00 0.00 0.00 41 1005.5
20260504212534 76 257 0.0 6.0 0.00 0.00 0.00 42 1005.6
20260504212033 76 256 1.0 6.0 0.00 0.00 0.00 41 1005.6
20260504211532 76 309 0.0 3.0 0.00 0.00 0.00 43 1005.8
20260504211032 76 310 0.0 3.0 0.00 0.00 0.00 43 1005.7
20260504210532 76 309 0.0 6.0 0.00 0.00 0.00 42 1006.0
20260504210031 76 59 1.0 6.0 0.00 0.00 0.00 42 1005.9
20260504205532 76 172 0.0 4.0 0.00 0.00 0.00 41 1005.9
20260504205031 76 115 0.0 4.0 0.00 0.00 0.00 45 1006.0
20260504204529 76 180 0.0 4.0 0.00 0.00 0.00 42 1006.0
20260504204028 76 321 0.0 4.0 0.00 0.00 0.00 43 1006.1
20260504203528 76 119 0.0 5.0 0.00 0.00 0.00 43 1006.2
20260504203027 76 86 1.0 5.0 0.00 0.00 0.00 41 1006.3
20260504202527 76 119 1.0 3.0 0.00 0.00 0.00 42 1006.3
20260504202025 76 186 0.0 3.0 0.00 0.00 0.00 44 1006.3
20260504201524 76 195 0.0 3.0 0.00 0.00 0.00 44 1006.4
20260504201022 75 10 0.0 3.0 0.00 0.00 0.00 46 1006.5
20260504200522 75 256 1.0 3.0 0.00 0.00 0.00 45 1006.5
20260504200034 75 301 0.0 3.0 0.00 0.00 0.00 49 1006.6
20260504195519 74 225 0.0 5.0 0.00 0.00 0.00 47 1006.7
20260504195018 74 204 1.0 5.0 0.00 0.00 0.00 46 1006.8
20260504194520 73 274 0.0 3.0 0.00 0.00 0.00 50 1006.9
20260504194016 73 274 0.0 4.0 0.00 0.00 0.00 49 1007.1
20260504193516 72 306 1.0 4.0 0.00 0.00 0.00 52 1007.3
20260504193014 72 213 0.0 5.0 0.00 0.00 0.00 53 1007.4
20260504192513 71 213 0.0 5.0 0.00 0.00 0.00 51 1007.6
20260504192012 71 305 1.0 4.0 0.00 0.00 0.00 51 1007.4
20260504191527 71 318 1.0 4.0 0.00 0.00 0.00 52 1007.7
20260504191012 70 322 1.0 4.0 0.00 0.00 0.00 52 1007.8
20260504190512 70 306 1.0 5.0 0.00 0.00 0.00 52 1007.8
20260504190012 70 183 0.0 3.0 0.00 0.00 0.00 51 1007.9
20260504185511 70 327 1.0 7.0 0.00 0.00 0.00 51 1008.1
20260504185011 70 284 0.0 7.0 0.00 0.00 0.00 51 1008.1
20260504184514 70 246 0.0 1.0 0.00 0.00 0.00 50 1008.0
20260504184011 71 248 0.0 2.0 0.00 0.00 0.00 51 1008.1
20260504183511 71 250 0.0 3.0 0.00 0.00 0.00 50 1008.0
20260504183024 71 248 0.0 5.0 0.00 0.00 0.00 50 1007.9
20260504182510 71 248 0.0 8.0 0.00 0.00 0.00 51 1007.8
20260504182010 71 173 1.0 5.0 0.00 0.00 0.00 49 1007.7
20260504181513 71 269 1.0 10.0 0.00 0.00 0.00 50 1007.7
20260504181010 71 192 2.0 10.0 0.00 0.00 0.00 47 1007.6
20260504180515 71 159 1.0 5.0 0.00 0.00 0.00 48 1007.4
20260504180010 71 325 1.0 5.0 0.00 0.00 0.00 49 1007.3
20260504175508 71 40 1.0 6.0 0.00 0.00 0.00 49 1007.3
20260504175007 71 295 1.0 4.0 0.00 0.00 0.00 52 1007.3
20260504174506 70 330 1.0 7.0 0.00 0.00 0.00 51 1007.2
20260504174005 70 96 1.0 7.0 0.00 0.00 0.00 52 1007.4
20260504173503 69 277 2.0 5.0 0.00 0.00 0.00 53 1007.5
20260504173004 69 96 1.0 4.0 0.00 0.00 0.00 53 1007.5
20260504172504 69 278 1.0 6.0 0.00 0.00 0.00 52 1007.6
20260504172002 69 244 2.0 8.0 0.00 0.00 0.00 54 1007.3
20260504171701 68 311 1.0 8.0 0.00 0.00 0.00 52 1006.9
20260504171101 68 113 1.0 6.0 0.00 0.00 0.00 54 1006.7
20260504170557 68 96 0.0 6.0 0.00 0.00 0.00 54 1007.4
20260504170105 68 113 1.0 6.0 0.00 0.00 0.00 53 1007.5
20260504151038 63 124 0.0 3.0 0.00 0.00 0.00 59 1008.4
20260504150540 63 124 0.0 3.0 0.00 0.00 0.00 57 1008.3
20260504141029 60 149 1.0 3.0 0.00 0.00 0.00 61 1008.4
20260504140528 59 153 0.0 3.0 0.00 0.00 0.00 61 1008.6
20260504130514 54 142 0.0 2.0 0.00 0.00 0.00 64 1009.0
20260504120104 52 302 0.0 2.0 0.00 0.00 0.00 63 1009.1
20260504110549 50 82 0.0 2.0 0.00 0.00 0.00 62 1008.6
20260504100542 50 99 0.0 1.0 0.00 0.00 0.00 60 1009.1
20260504081530 51 104 0.0 3.0 0.00 0.00 0.00 57 1009.8
20260504081030 51 106 0.0 3.0 0.00 0.00 0.00 56 1010.0
20260504080529 51 107 0.0 1.0 0.00 0.00 0.00 56 1010.0
20260504050513 52 157 0.0 3.0 0.00 0.00 0.00 55 1011.8
20260504050012 51 109 0.0 3.0 0.00 0.00 0.00 56 1011.7
20260504045510 51 109 0.0 4.0 0.00 0.00 0.00 55 1011.8
20260504045012 51 119 0.0 3.0 0.00 0.00 0.00 55 1011.9
20260504044519 51 105 0.0 3.0 0.00 0.00 0.00 55 1012.0
20260504044013 51 119 0.0 4.0 0.00 0.00 0.00 55 1011.9
20260504043510 51 119 0.0 4.0 0.00 0.00 0.00 55 1011.9
20260504043012 51 111 0.0 6.0 0.00 0.00 0.00 55 1011.9
20260504042509 51 121 1.0 9.0 0.00 0.00 0.00 54 1011.9
20260504042009 51 132 0.0 9.0 0.00 0.00 0.00 55 1012.0
20260504041508 51 92 0.0 2.0 0.00 0.00 0.00 55 1012.0
20260504041007 51 123 0.0 3.0 0.00 0.00 0.00 55 1012.1
20260504040507 51 123 0.0 3.0 0.00 0.00 0.00 54 1012.2
20260504040005 52 123 0.0 2.0 0.00 0.00 0.00 53 1012.3
20260504035505 52 123 0.0 3.0 0.00 0.00 0.00 53 1012.3
20260504035004 52 110 0.0 3.0 0.00 0.00 0.00 53 1012.4
20260504034506 52 101 0.0 2.0 0.00 0.00 0.00 52 1012.4
20260504034004 52 101 0.0 1.0 0.00 0.00 0.00 52 1012.5
20260504033504 53 101 0.0 1.0 0.00 0.00 0.00 52 1012.6
20260504033005 53 101 0.0 2.0 0.00 0.00 0.00 52 1012.5
20260504032504 53 101 0.0 2.0 0.00 0.00 0.00 51 1012.5
20260504032005 53 101 0.0 1.0 0.00 0.00 0.00 51 1012.5
20260504031505 54 101 0.0 0.0 0.00 0.00 0.00 51 1012.6
20260504031003 54 101 0.0 1.0 0.00 0.00 0.00 50 1012.6
20260504030504 54 101 0.0 1.0 0.00 0.00 0.00 50 1012.5
20260504030009 54 101 0.0 2.0 0.00 0.00 0.00 49 1012.6
20260504025507 54 101 0.0 2.0 0.00 0.00 0.00 49 1012.7
20260504025003 55 101 0.0 1.0 0.00 0.00 0.00 49 1012.7
20260504024505 55 101 0.0 1.0 0.00 0.00 0.00 49 1012.7
20260504024002 55 101 0.0 0.0 0.00 0.00 0.00 49 1012.8